User: anonymous
Location: Caltech
(34.1382°N, 118.1253°W)
Time: 09:55:54
(UTC-07:00)
Language:

FENGYUN 3A - Orbit

View from above orbital plane
View from above orbital plane
View from above satellite
View from above satellite

Ground track
Ground track

The orbit data is extracted from the following two-line orbital elements,

1 32958U 08026A   14249.47258257  .00000070  00000-0  33237-4 0  2973
2 32958 098.5483 305.5403 0009652 344.5953 015.5575 14.19466320325375
Epoch (UTC): 06 September 2014 11:20:31
Eccentricity: 0.0009652
inclination: 98.5483°
perigee height: 820 km
apogee height: 834 km
right ascension of ascending node: 305.5403°
argument of perigee: 344.5953°
revolutions per day: 14.19466320
mean anomaly at epoch: 15.5575°
orbit number at epoch: 32537

The dashed part of the orbit path shows where the satellite is in the earth's shadow,  

DLR